Location: Newark
(54.5667°N, 9.6500°E)
Time: 17:46:02
(UTC+00:00)

Envisat - Visible Passes

Search period start: 23 October 2019 00:00
Search period end: 02 November 2019 00:00
Orbit: 764 x 766 km, 98.1° (Epoch: 23 October)

Date Brightness Start Highest point End Pass type
(mag) Time Alt. Az. Time Alt. Az. Time Alt. Az.
23 Oct 3.3 17:22:17 10° S 17:27:21 71° WSW 17:32:28 10° NNW visible
23 Oct 6.1 19:04:56 10° WSW 19:07:20 13° W 19:09:45 10° NW visible
24 Oct 5.7 05:24:29 10° NE 05:28:41 25° E 05:32:52 10° SSE visible
24 Oct 3.0 16:45:35 10° SSE 16:50:36 63° ENE 16:55:39 10° N visible
24 Oct 5.3 18:25:54 10° SW 18:30:03 25° W 18:34:14 10° NW visible
25 Oct 6.3 04:48:54 10° NE 04:51:24 14° E 04:53:53 10° ESE visible
25 Oct 4.2 17:48:05 10° S 17:52:58 46° W 17:57:52 10° NNW visible
26 Oct 3.1 17:10:59 10° SSE 17:16:04 85° WSW 17:21:13 10° NNW visible
26 Oct 5.9 18:52:47 10° WSW 18:55:54 16° W 18:59:01 10° NW visible
27 Oct 5.9 05:13:26 10° NE 05:17:17 21° E 05:21:07 10° SE visible
27 Oct 3.1 16:34:26 10° SE 16:39:22 53° ENE 16:44:19 10° N visible
27 Oct 5.0 18:14:14 10° SSW 18:18:40 30° W 18:23:07 10° NNW visible
28 Oct 6.5 04:38:34 10° ENE 04:39:57 11° E 04:41:19 10° E visible
28 Oct 3.8 17:36:39 10° S 17:41:39 55° W 17:46:40 10° NNW visible
29 Oct 2.9 16:59:43 10° SSE 17:04:48 81° ENE 17:09:55 10° NNW visible
29 Oct 5.7 18:40:51 10° SW 18:44:29 19° W 18:48:06 10° NW visible
30 Oct 6.0 05:02:29 10° NE 05:05:52 18° E 05:09:15 10° SE visible
30 Oct 3.3 16:23:20 10° SE 16:28:09 45° ENE 16:32:59 10° N visible
30 Oct 4.6 18:02:39 10° SSW 18:07:18 35° W 18:11:59 10° NNW visible
31 Oct 3.4 17:25:17 10° S 17:30:20 67° WSW 17:35:26 10° NNW visible
31 Oct 6.1 19:08:20 10° WSW 19:10:22 12° W 19:12:25 10° WNW visible
01 Nov 5.5 05:27:22 10° NE 05:31:42 27° E 05:35:59 10° SSE visible
01 Nov 3.0 16:48:31 10° SSE 16:53:33 68° ENE 16:58:37 10° NNW visible
01 Nov 5.4 18:29:03 10° SW 18:33:04 23° W 18:37:06 10° NW visible
